TimeICT,TemperatureF,Dew PointF,Humidity,Sea Level PressureIn,VisibilityMPH,Wind Direction,Wind SpeedMPH,Gust SpeedMPH,PrecipitationIn,Events,Conditions,WindDirDegrees,DateUTC
12:00 AM,77.0,73.4,89,29.83,6.2,Calm,Calm,-,N/A,,Mostly Cloudy,0,2012-11-28 17:00:00
12:30 AM,75.2,73.4,94,29.83,6.2,ESE,3.5,-,N/A,,Mostly Cloudy,114,2012-11-28 17:30:00
1:00 AM,78,75,88,29.78,6,Calm,Calm,,,,Scattered Clouds,,2012-11-28 18:00:00
1:00 AM,75.2,73.4,94,29.83,6.2,Calm,Calm,-,N/A,,Mostly Cloudy,0,2012-11-28 18:00:00
1:30 AM,75.2,73.4,94,29.83,6.2,Calm,Calm,-,N/A,,Mostly Cloudy,0,2012-11-28 18:30:00
2:00 AM,77.0,73.4,89,29.80,6.2,Calm,Calm,-,N/A,,Mostly Cloudy,0,2012-11-28 19:00:00
2:30 AM,77.0,73.4,89,29.80,6.2,Calm,Calm,-,N/A,,Scattered Clouds,0,2012-11-28 19:30:00
3:00 AM,75.2,73.4,94,29.77,6.2,Calm,Calm,-,N/A,,Scattered Clouds,0,2012-11-28 20:00:00
3:30 AM,75.2,73.4,94,29.77,6.2,Calm,Calm,-,N/A,,Scattered Clouds,0,2012-11-28 20:30:00
4:00 AM,75.2,73.4,94,29.77,6.2,Calm,Calm,-,N/A,,Scattered Clouds,0,2012-11-28 21:00:00
4:30 AM,75.2,73.4,94,29.77,6.2,Calm,Calm,-,N/A,,Scattered Clouds,0,2012-11-28 21:30:00
5:00 AM,75.2,73.4,94,29.77,6.2,Calm,Calm,-,N/A,,Scattered Clouds,0,2012-11-28 22:00:00
5:30 AM,75.2,73.4,94,29.77,6.2,ESE,3.5,-,N/A,,Scattered Clouds,110,2012-11-28 22:30:00
6:00 AM,75.2,73.4,94,29.77,6.2,Calm,Calm,-,N/A,,Scattered Clouds,0,2012-11-28 23:00:00
6:30 AM,75.2,73.4,94,29.77,6.2,Calm,Calm,-,N/A,,Mostly Cloudy,0,2012-11-28 23:30:00
7:00 AM,77,76,95,29.79,6,Calm,Calm,,,,Scattered Clouds,,2012-11-29 00:00:00
7:00 AM,75.2,73.4,94,29.80,6.2,Calm,Calm,-,N/A,,Mostly Cloudy,0,2012-11-29 00:00:00
7:30 AM,78.8,75.2,89,29.80,6.2,Calm,Calm,-,N/A,,Mostly Cloudy,0,2012-11-29 00:30:00
8:00 AM,80.6,75.2,84,29.80,6.2,East,6.9,-,N/A,,Mostly Cloudy,80,2012-11-29 01:00:00
8:30 AM,82.4,77.0,84,29.83,6.2,East,6.9,-,N/A,,Mostly Cloudy,80,2012-11-29 01:30:00
9:00 AM,82.4,75.2,79,29.83,6.2,ENE,9.2,-,N/A,,Scattered Clouds,70,2012-11-29 02:00:00
9:30 AM,84.2,75.2,74,29.83,6.2,East,10.4,-,N/A,,Scattered Clouds,80,2012-11-29 02:30:00
10:00 AM,84.2,75.2,74,29.83,6.2,East,10.4,-,N/A,,Scattered Clouds,80,2012-11-29 03:00:00
10:30 AM,84.2,77.0,79,29.83,6.2,East,9.2,-,N/A,,Scattered Clouds,90,2012-11-29 03:30:00
11:00 AM,84.2,75.2,74,29.83,6.2,East,11.5,-,N/A,,Scattered Clouds,80,2012-11-29 04:00:00
11:30 AM,86.0,75.2,70,29.83,6.2,East,9.2,-,N/A,,Scattered Clouds,90,2012-11-29 04:30:00
12:00 PM,86.0,75.2,70,29.83,6.2,East,10.4,-,N/A,,Scattered Clouds,90,2012-11-29 05:00:00
12:30 PM,86.0,75.2,70,29.80,6.2,East,10.4,-,N/A,,Scattered Clouds,80,2012-11-29 05:30:00
1:00 PM,88,78,65,29.77,6,East,9.2,,,,Scattered Clouds,90,2012-11-29 06:00:00
1:00 PM,86.0,75.2,70,29.80,6.2,East,9.2,-,N/A,,Mostly Cloudy,80,2012-11-29 06:00:00
1:30 PM,87.8,75.2,66,29.77,6.2,ESE,6.9,-,N/A,,Mostly Cloudy,120,2012-11-29 06:30:00
2:00 PM,87.8,75.2,66,29.77,6.2,East,8.1,-,N/A,,Mostly Cloudy,80,2012-11-29 07:00:00
2:30 PM,87.8,75.2,66,29.74,6.2,NE,8.1,-,N/A,,Mostly Cloudy,50,2012-11-29 07:30:00
3:00 PM,87.8,75.2,66,29.74,6.2,East,9.2,-,N/A,,Mostly Cloudy,80,2012-11-29 08:00:00
3:30 PM,86.0,75.2,70,29.71,6.2,East,8.1,-,N/A,,Mostly Cloudy,80,2012-11-29 08:30:00
4:00 PM,87.8,77.0,70,29.71,6.2,ENE,6.9,-,N/A,,Mostly Cloudy,60,2012-11-29 09:00:00
5:00 PM,86.0,75.2,70,29.71,5.6,East,6.9,-,N/A,,Mostly Cloudy,80,2012-11-29 10:00:00
5:30 PM,86.0,75.2,70,29.71,6.2,ENE,4.6,-,N/A,,Mostly Cloudy,60,2012-11-29 10:30:00
6:00 PM,84.2,75.2,74,29.74,5.6,ESE,4.6,-,N/A,,Mostly Cloudy,110,2012-11-29 11:00:00
6:30 PM,82.4,75.2,79,29.77,5.0,ESE,3.5,-,N/A,,Mostly Cloudy,120,2012-11-29 11:30:00
7:00 PM,85,77,72,29.72,5,East,11.5,,,Rain,Light Rain,90,2012-11-29 12:00:00
7:00 PM,78.8,75.2,89,29.77,4.3,ENE,12.7,-,N/A,Rain,Light Rain,60,2012-11-29 12:00:00
7:30 PM,77.0,73.4,89,29.80,5.0,SE,2.3,-,N/A,,Mostly Cloudy,130,2012-11-29 12:30:00
8:00 PM,78.8,75.2,89,29.80,5.6,East,4.6,-,N/A,,Mostly Cloudy,90,2012-11-29 13:00:00
8:30 PM,78.8,75.2,89,29.80,5.0,Variable,2.3,-,N/A,,Mostly Cloudy,0,2012-11-29 13:30:00
9:00 PM,78.8,75.2,89,29.83,5.0,ESE,3.5,-,N/A,,Mostly Cloudy,110,2012-11-29 14:00:00
9:30 PM,78.8,75.2,89,29.83,5.0,ESE,4.6,-,N/A,,Mostly Cloudy,110,2012-11-29 14:30:00
10:00 PM,80.6,75.2,84,29.83,5.6,ESE,5.8,-,N/A,,Mostly Cloudy,110,2012-11-29 15:00:00
10:30 PM,80.6,73.4,79,29.83,5.6,East,8.1,-,N/A,,Mostly Cloudy,100,2012-11-29 15:30:00
11:00 PM,80.6,75.2,84,29.83,5.6,East,9.2,-,N/A,,Mostly Cloudy,100,2012-11-29 16:00:00
11:30 PM,80.6,75.2,84,29.83,5.6,East,6.9,-,N/A,,Mostly Cloudy,100,2012-11-29 16:30:00